Location: Staunton
(38.1490°N, 79.0720°W)
Time: 09:17:12
(UTC-04:00)

ISS - Pass Details

Date: 18 October 2017
Orbit: 401 x 408 km, 51.6° (Epoch: 18 October)

Event Time Altitude Azimuth Distance (km) Brightness Sun altitude
Rises 19:10:00 0° 296° (WNW) 2,319 1.1 -7.8°
Reaches altitude 10° 19:12:23 10° 280° (W) 1,457 0.4 -8.3°
Maximum altitude 19:14:57 21° 229° (SW) 955 -1.2 -8.8°
Drops below altitude 10° 19:17:30 10° 177° (S) 1,452 -1.0 -9.3°
Sets 19:19:53 0° 161° (SSE) 2,308 -0.1 -9.8°
